Hurley, NM

6:34 PM MST on December 03, 2016 (GMT -0700)
Grant County

Weather History for KSVC - November, 2012

Change the Weather History Date:

Wednesday, November 28, 2012

  Actual Average (KDMN) Record (KDMN)
Temperature  
Mean Temperature 48 °F 45 °F  
Max Temperature 64 °F 61 °F 80 °F (1949)
Min Temperature 32 °F 30 °F 13 °F (1948)
Degree Days  
Heating Degree Days 17    
Moisture  
Dew Point 27 °F    
Average Humidity 45    
Maximum Humidity 69    
Minimum Humidity 30    
Precipitation  
Precipitation 0.00 in 0.03 in 0.20 in (1967)
Month to date precipitation 0.66  
Year to date precipitation 10.61  
Sea Level Pressure  
Sea Level Pressure 30.31 in    
Wind  
Wind Speed 8 mph (NNE)    
Max Wind Speed 12 mph    
Max Gust Speed 16 mph    
Visibility 10 miles    
Events      
T = Trace of Precipitation, MM = Missing Value Source: NWS Daily Summary

Daily Weather History Graph

Daily Weather History Graph

Search for Another Location

Airport or City:

Trip Planner

Search our weather history database for the weather conditions in past years. The results will help you decide how hot, cold, wet, or windy it might be!

Date:

Astronomy

Nov. 28, 2012 Rise Set
Actual Time 6:54 AM MST 5:06 PM MST
Civil Twilight 6:27 AM MST 5:33 PM MST
Nautical Twilight 5:57 AM MST 6:03 PM MST
Astronomical Twilight 5:27 AM MST 6:33 PM MST
Moon 5:24 PM MST (11/28) 6:54 AM MST (11/28)
Length of Visible Light 11h 05m
Length of Day
10h 12m
Full, 100% of the Moon is Illuminated
Nov 28
Full
Dec 6
Last Quarter
Dec 13
New
Dec 19
First Quarter
Dec 28
Full

Hourly Weather History & Observations

Time (MST) Temp. Windchill Dew Point Humidity Pressure Visibility Wind Dir Wind Speed Gust Speed Precip Events Conditions
12:15 AM 39.2 °F 33.0 °F 21.2 °F 49% 30.37 in 10.0 mi North 9.2 mph - N/A   Clear
12:55 AM 39.2 °F 32.5 °F 21.2 °F 49% 30.36 in 10.0 mi North 10.4 mph - N/A   Clear
1:15 AM 39.2 °F 32.5 °F 23.0 °F 52% 30.36 in 10.0 mi North 10.4 mph - N/A   Clear
1:35 AM 39.2 °F 32.0 °F 21.2 °F 49% 30.36 in 10.0 mi North 11.5 mph - N/A   Clear
1:55 AM 39.2 °F 32.5 °F 23.0 °F 52% 30.35 in 10.0 mi North 10.4 mph - N/A   Clear
2:15 AM 39.2 °F 33.0 °F 21.2 °F 49% 30.35 in 10.0 mi NNE 9.2 mph - N/A   Clear
2:35 AM 39.2 °F 33.0 °F 21.2 °F 49% 30.35 in 10.0 mi North 9.2 mph - N/A   Clear
2:55 AM 39.2 °F 33.0 °F 21.2 °F 49% 30.34 in 10.0 mi North 9.2 mph - N/A   Clear
3:15 AM 39.2 °F 33.0 °F 21.2 °F 49% 30.34 in 10.0 mi North 9.2 mph - N/A   Clear
3:35 AM 37.4 °F 32.1 °F 21.2 °F 52% 30.34 in 10.0 mi North 6.9 mph - N/A   Clear
3:55 AM 37.4 °F 32.1 °F 21.2 °F 52% 30.34 in 10.0 mi North 6.9 mph - N/A   Clear
4:15 AM 37.4 °F 30.3 °F 21.2 °F 52% 30.33 in 10.0 mi North 10.4 mph - N/A   Clear
4:55 AM 39.2 °F 32.0 °F 23.0 °F 52% 30.33 in 10.0 mi North 11.5 mph - N/A   Clear
5:15 AM 39.2 °F 33.6 °F 23.0 °F 52% 30.33 in 10.0 mi NNE 8.1 mph - N/A   Clear
5:35 AM 39.2 °F 33.6 °F 23.0 °F 52% 30.33 in 10.0 mi NNE 8.1 mph - N/A   Clear
5:55 AM 39.2 °F 33.0 °F 24.8 °F 56% 30.33 in 10.0 mi NNE 9.2 mph - N/A   Clear
6:15 AM 37.4 °F 30.8 °F 23.0 °F 56% 30.33 in 10.0 mi NNE 9.2 mph - N/A   Clear
6:35 AM 35.6 °F 29.2 °F 23.0 °F 60% 30.34 in 10.0 mi North 8.1 mph - N/A   Clear
6:55 AM 32.0 °F 24.8 °F 23.0 °F 69% 30.34 in 10.0 mi NNW 8.1 mph - N/A   Clear
7:15 AM 33.8 °F 27.0 °F 23.0 °F 65% 30.35 in 10.0 mi North 8.1 mph - N/A   Clear
7:35 AM 39.2 °F 35.9 °F 24.8 °F 56% 30.35 in 10.0 mi NNW 4.6 mph - N/A   Clear
7:55 AM 44.6 °F - 26.6 °F 49% 30.35 in 10.0 mi Calm Calm - N/A   Clear
8:15 AM 48.2 °F - 26.6 °F 43% 30.36 in 10.0 mi WNW 3.5 mph - N/A   Clear
8:35 AM 50.0 °F - 26.6 °F 40% 30.37 in 10.0 mi West 3.5 mph - N/A   Clear
8:55 AM 53.6 °F - 28.4 °F 38% 30.37 in 10.0 mi Calm Calm - N/A   Clear
9:15 AM 55.4 °F - 26.6 °F 33% 30.38 in 10.0 mi South 5.8 mph - N/A   Clear
9:35 AM 55.4 °F - 26.6 °F 33% 30.38 in 10.0 mi South 5.8 mph - N/A   Clear
9:55 AM 57.2 °F - 26.6 °F 31% 30.38 in 10.0 mi SE 5.8 mph - N/A   Clear
10:15 AM 57.2 °F - 28.4 °F 33% 30.38 in 10.0 mi ESE 6.9 mph - N/A   Clear
10:35 AM 57.2 °F - 28.4 °F 33% 30.38 in 10.0 mi South 4.6 mph - N/A   Clear
10:55 AM 59.0 °F - 30.2 °F 34% 30.37 in 10.0 mi SE 3.5 mph - N/A   Clear
11:15 AM 59.0 °F - 30.2 °F 34% 30.36 in 10.0 mi South 5.8 mph - N/A   Clear
11:55 AM 60.8 °F - 30.2 °F 31% 30.34 in 10.0 mi SE 8.1 mph - N/A   Clear
12:15 PM 60.8 °F - 32.0 °F 34% 30.32 in 10.0 mi SSE 6.9 mph - N/A   Clear
12:35 PM 60.8 °F - 32.0 °F 34% 30.31 in 10.0 mi SSE 8.1 mph - N/A   Partly Cloudy
12:55 PM 62.6 °F - 32.0 °F 32% 30.29 in 10.0 mi SSE 9.2 mph - N/A   Partly Cloudy
1:15 PM 62.6 °F - 32.0 °F 32% 30.28 in 10.0 mi South 10.4 mph - N/A   Clear
1:35 PM 64.4 °F - 32.0 °F 30% 30.27 in 10.0 mi SSE 10.4 mph 16.1 mph N/A   Clear
1:55 PM 64.4 °F - 32.0 °F 30% 30.26 in 10.0 mi SSE 4.6 mph - N/A   Clear
2:15 PM 62.6 °F - 32.0 °F 32% 30.25 in 10.0 mi South 8.1 mph - N/A   Clear
2:35 PM 64.4 °F - 32.0 °F 30% 30.25 in 10.0 mi SSW 10.4 mph - N/A   Clear
2:55 PM 64.4 °F - 32.0 °F 30% 30.24 in 10.0 mi South 9.2 mph - N/A   Clear
3:15 PM 62.6 °F - 32.0 °F 32% 30.24 in 10.0 mi South 9.2 mph - N/A   Clear
3:35 PM 62.6 °F - 32.0 °F 32% 30.24 in 10.0 mi South 9.2 mph - N/A   Clear
3:55 PM 60.8 °F - 32.0 °F 34% 30.24 in 10.0 mi South 8.1 mph - N/A   Clear
4:15 PM 60.8 °F - 32.0 °F 34% 30.25 in 10.0 mi South 6.9 mph - N/A   Clear
4:35 PM 59.0 °F - 32.0 °F 36% 30.25 in 10.0 mi South 5.8 mph - N/A   Clear
4:55 PM 59.0 °F - 32.0 °F 36% 30.25 in 10.0 mi South 3.5 mph - N/A   Clear
5:35 PM 55.4 °F - 32.0 °F 41% 30.26 in 10.0 mi Calm Calm - N/A   Clear
5:55 PM 53.6 °F - 28.4 °F 38% 30.26 in 10.0 mi Calm Calm - N/A   Clear
6:15 PM 48.2 °F - 26.6 °F 43% 30.26 in 10.0 mi Calm Calm - N/A   Clear
6:55 PM 48.2 °F - 26.6 °F 43% 30.26 in 10.0 mi North 5.8 mph - N/A   Clear
7:15 PM 48.2 °F - 28.4 °F 46% 30.26 in 10.0 mi NNE 4.6 mph - N/A   Clear
7:35 PM 46.4 °F 42.9 °F 26.6 °F 46% 30.26 in 10.0 mi North 6.9 mph - N/A   Clear
7:55 PM 44.6 °F 43.1 °F 26.6 °F 49% 30.26 in 10.0 mi NNW 3.5 mph - N/A   Clear
8:15 PM 44.6 °F 42.2 °F 26.6 °F 49% 30.26 in 10.0 mi NNW 4.6 mph - N/A   Clear
8:35 PM 41.0 °F 36.4 °F 26.6 °F 57% 30.26 in 10.0 mi North 6.9 mph - N/A   Clear
8:55 PM 42.8 °F 38.0 °F 28.4 °F 57% 30.27 in 10.0 mi North 8.1 mph - N/A   Clear
9:15 PM 41.0 °F 35.2 °F 28.4 °F 61% 30.28 in 10.0 mi North 9.2 mph - N/A   Clear
9:35 PM 41.0 °F 35.8 °F 28.4 °F 61% 30.28 in 10.0 mi North 8.1 mph - N/A   Clear
9:55 PM 41.0 °F 34.7 °F 28.4 °F 61% 30.28 in 10.0 mi North 10.4 mph - N/A   Clear
10:15 PM 41.0 °F 35.2 °F 28.4 °F 61% 30.29 in 10.0 mi North 9.2 mph - N/A   Clear
10:35 PM 41.0 °F 35.2 °F 28.4 °F 61% 30.29 in 10.0 mi North 9.2 mph - N/A   Clear
11:15 PM 41.0 °F 34.7 °F 28.4 °F 61% 30.28 in 10.0 mi North 10.4 mph - N/A   Clear
11:35 PM 39.2 °F 33.0 °F 28.4 °F 65% 30.28 in 10.0 mi North 9.2 mph - N/A   Clear
11:55 PM 41.0 °F 35.2 °F 28.4 °F 61% 30.28 in 10.0 mi North 9.2 mph - N/A   Clear